[TLELIST] Archives

 

[list_settings.list_name] Current TLEs

September 4th 2010 PST

HST 1 20580U 90037B 10247.17212892 .00000422 00000-0 19424-4 0 6393 2 20580 028.4726 084.1981 0003252 322.8891 037.1433 15.01027392916638 ISS (ZARYA) 1 25544U 98067A 10247.23811862 .00008891 00000-0 72641-4 0 8275 2 25544 051.6460 186.1306 0008009 332.8302 170.9558 15.71451771675908 CXO 1 25867U 99040B 10245.75000000 -.00000199 00000-0 10000-3 0 5095 2 25867 067.5357 049.5281 8271942 275.4097 358.9203 00.37797867 6683 ____________________________________________________________________ These 2-Line ...Continue Reading

[list_settings.list_name] Current TLEs

September 3rd 2010 PST

HST 1 20580U 90037B 10245.04443848 .00000431 00000-0 20149-4 0 6389 2 20580 028.4723 098.0892 0003379 294.3708 065.6530 15.01026337916317 ISS (ZARYA) 1 25544U 98067A 10246.22058105 .00008187 00000-0 67330-4 0 8228 2 25544 051.6454 191.3346 0007971 328.0832 175.4195 15.71429560675745 CXO 1 25867U 99040B 10245.75000000 -.00000199 00000-0 10000-3 0 5095 2 25867 067.5357 049.5281 8271942 275.4097 358.9203 00.37797867 6683 ____________________________________________________________________ These 2-Line ...Continue Reading

[list_settings.list_name] Current TLEs

September 2nd 2010 PST

HST 1 20580U 90037B 10245.04443848 .00000431 00000-0 20149-4 0 6389 2 20580 028.4723 098.0892 0003379 294.3708 065.6530 15.01026337916317 ISS (ZARYA) 1 25544U 98067A 10245.33282459 .00008587 00000-0 70426-4 0 8178 2 25544 051.6462 195.8761 0007868 324.1199 193.8657 15.71415552675600 CXO 1 25867U 99040B 10245.75000000 -.00000199 00000-0 10000-3 0 5095 2 25867 067.5357 049.5281 8271942 275.4097 358.9203 00.37797867 6683 ____________________________________________________________________ These 2-Line ...Continue Reading

[list_settings.list_name] Current TLEs

September 1st 2010 PST

HST 1 20580U 90037B 10244.04708339 .00000448 00000-0 21396-4 0 6379 2 20580 028.4708 104.6022 0003437 282.4055 077.6144 15.01025819916168 ISS (ZARYA) 1 25544U 98067A 10244.49650624 .00009349 00000-0 76288-4 0 8121 2 25544 051.6460 200.1536 0007998 320.7259 142.9748 15.71403095675471 CXO 1 25867U 99040B 10243.08333333 -.00000204 00000-0 10000-3 0 5083 2 25867 067.5255 049.6543 8269863 275.4394 355.7933 00.37802137 6672 ____________________________________________________________________ These 2-Line ...Continue Reading

[list_settings.list_name] Current TLEs

August 31st 2010 PST

HST 1 20580U 90037B 10243.04972933 .00000483 00000-0 24102-4 0 6367 2 20580 028.4700 111.1142 0003482 272.2564 087.7674 15.01025458916011 ISS (ZARYA) 1 25544U 98067A 10243.35752986 .00011033 00000-0 89230-4 0 8044 2 25544 051.6458 205.9776 0007725 316.5263 179.6537 15.71386558675290 CXO 1 25867U 99040B 10243.08333333 -.00000204 00000-0 10000-3 0 5083 2 25867 067.5255 049.6543 8269863 275.4394 355.7933 00.37802137 6672 ____________________________________________________________________ These 2-Line ...Continue Reading

[list_settings.list_name] Current TLEs

August 30th 2010 PST

HST 1 20580U 90037B 10241.12151096 .00000455 00000-0 21947-4 0 6355 2 20580 028.4685 123.7045 0003582 252.6912 107.3393 15.01023978915723 ISS (ZARYA) 1 25544U 98067A 10242.52502669 .00011624 00000-0 93805-4 0 7995 2 25544 051.6460 210.2356 0007889 312.7395 150.8511 15.71370225675164 CXO 1 25867U 99040B 10243.08333333 -.00000204 00000-0 10000-3 0 5083 2 25867 067.5255 049.6543 8269863 275.4394 355.7933 00.37802137 6672 ____________________________________________________________________ These 2-Line ...Continue Reading

[list_settings.list_name] Current TLEs

August 29th 2010 PST

HST 1 20580U 90037B 10241.12151096 .00000455 00000-0 21947-4 0 6355 2 20580 028.4685 123.7045 0003582 252.6912 107.3393 15.01023978915723 ISS (ZARYA) 1 25544U 98067A 10241.50655329 .00012417 00000-0 99969-4 0 7936 2 25544 051.6458 215.4440 0007799 310.0638 148.2666 15.71348212675009 CXO 1 25867U 99040B 10240.45833333 -.00000194 00000-0 10000-3 0 5073 2 25867 067.5081 049.8128 8269870 275.4326 358.4181 00.37807117 6660 ____________________________________________________________________ These 2-Line ...Continue Reading

[list_settings.list_name] Current TLEs

August 28th 2010 PST

HST 1 20580U 90037B 10238.12944327 .00000409 00000-0 18407-4 0 6343 2 20580 028.4677 143.2399 0003640 221.6409 138.3923 15.01021892915271 ISS (ZARYA) 1 25544U 98067A 10240.48791786 .00013320 00000-0 10699-3 0 7868 2 25544 051.6457 220.6536 0007769 306.3147 145.9252 15.71324988674842 CXO 1 25867U 99040B 10240.45833333 -.00000194 00000-0 10000-3 0 5073 2 25867 067.5081 049.8128 8269870 275.4326 358.4181 00.37807117 6660 ____________________________________________________________________ These 2-Line ...Continue Reading

[list_settings.list_name] Current TLEs

August 27th 2010 PST

HST 1 20580U 90037B 10238.12944327 .00000409 00000-0 18407-4 0 6343 2 20580 028.4677 143.2399 0003640 221.6409 138.3923 15.01021892915271 ISS (ZARYA) 1 25544U 98067A 10239.47919226 .00012811 00000-0 10321-3 0 7806 2 25544 051.6453 225.8131 0007782 302.6469 199.6765 15.71295651674688 CXO 1 25867U 99040B 10240.45833333 -.00000194 00000-0 10000-3 0 5073 2 25867 067.5081 049.8128 8269870 275.4326 358.4181 00.37807117 6660 ____________________________________________________________________ These 2-Line ...Continue Reading

[list_settings.list_name] Current TLEs

August 26th 2010 PST

HST 1 20580U 90037B 10238.12944327 .00000409 00000-0 18407-4 0 6343 2 20580 028.4677 143.2399 0003640 221.6409 138.3923 15.01021892915271 ISS (ZARYA) 1 25544U 98067A 10238.51607682 .00011431 00000-0 92741-4 0 7747 2 25544 051.6455 230.7385 0007607 298.1815 152.4962 15.71265482674535 CXO 1 25867U 99040B 10237.83333333 -.00000251 00000-0 10000-3 0 5069 2 25867 067.5017 049.9467 8268393 275.4120 001.0704 00.37806964 6657 ____________________________________________________________________ These 2-Line ...Continue Reading
  • This mailing list is a public mailing list - anyone may join or leave, at any time.
  • This mailing list is announce-only.

International Space Station (ISS) / Hubble Space Telescope (HST) / Chandra X-Ray Observatory Orbital Data via EMAIL

Privacy Policy:

Private list